Date String (YYYY-MM-DD hh:mm:ss) UTC,Instrument flags,absolute air pressure of the measurement (hPa),sample flow rate (lpm),inlet stack bypass flow (lpm),air temperature of the measurement (°C),ambient temperature measured by the external sensor (°C),aerosol sample conditioner tube jacket temperature (°C),OPC LED temperature (°C),internal box temperature (°C),relative humidity of the measurement (%),span deviation,mass concentration of particles derived from Lorenz-Mie calculation of OPC scattering (μg/m³),mass concentration of particles derived from Lorenz-Mie calculation of OPC scattering (μg/m³),mass concentration of particles derived from Lorenz-Mie calculation of OPC scattering (μg/m³)
DateTimeUTC,F1_M11,P_M11,Q1_M11,Q2_M11,T1_M11,T2_M11,T3_M11,T4_M11,T5_M11,U1_M11,ZSPAN_M11,X0_M11,X2_M11,X1_M11
2023-12-23 20:00:00,SystemResetWarning,0817.6,5.01,000.00,024.6,023.9,000.0,032.8,026.0,13.8,0000.0,0003.45,0002.11,0001.69
2023-12-23 20:01:00,SystemResetWarning,0817.6,5.00,000.00,024.6,023.9,000.0,032.8,026.1,13.8,0000.0,0003.89,0002.28,0001.87
2023-12-23 20:02:00,SystemResetWarning,0817.6,5.01,000.00,024.6,023.9,000.0,032.8,026.1,13.8,0000.0,0004.53,0002.55,0002.06
2023-12-23 20:03:00,SystemResetWarning,0817.6,5.00,000.00,024.6,023.9,000.0,032.9,026.1,14.0,0000.0,0005.21,0002.79,0002.24
2023-12-23 20:04:00,SystemResetWarning,0817.6,5.00,000.00,024.6,023.9,000.0,032.9,026.1,13.9,0000.0,0006.75,0002.96,0002.39
2023-12-23 20:05:00,SystemResetWarning,0817.6,5.00,000.00,024.6,024.0,000.0,032.9,026.1,13.9,0000.0,0006.97,0003.07,0002.50
2023-12-23 20:06:00,SystemResetWarning,0817.7,5.00,000.00,024.6,024.0,000.0,032.9,026.1,13.8,0000.0,0007.25,0003.13,0002.61
2023-12-23 20:07:00,SystemResetWarning,0817.7,5.00,000.00,024.7,024.0,000.0,032.9,026.2,13.9,0000.0,0007.63,0003.16,0002.65
2023-12-23 20:08:00,SystemResetWarning,0817.6,5.00,000.00,024.7,024.0,000.0,032.9,026.2,13.9,0000.0,0007.65,0003.14,0002.62
2023-12-23 20:09:00,SystemResetWarning,0817.7,5.01,000.00,024.7,024.0,000.0,032.9,026.2,13.9,0000.0,0007.60,0003.14,0002.62
2023-12-23 20:10:00,SystemResetWarning,0817.8,5.01,000.00,024.7,024.0,000.0,032.9,026.2,13.9,0000.0,0007.50,0003.13,0002.63
2023-12-23 20:11:00,SystemResetWarning,0817.8,5.00,000.00,024.7,024.0,000.0,032.9,026.2,14.0,0000.0,0007.62,0003.15,0002.62
2023-12-23 20:12:00,SystemResetWarning,0817.7,5.01,000.00,024.8,024.1,000.0,033.0,026.3,14.0,0000.0,0007.46,0003.11,0002.57
2023-12-23 20:13:00,SystemResetWarning,0817.8,5.01,000.00,024.8,024.1,000.0,033.0,026.3,14.0,0000.0,0007.18,0003.02,0002.49
2023-12-23 20:14:00,SystemResetWarning,0817.8,5.01,000.00,024.8,024.1,000.0,033.0,026.3,14.1,0000.0,0006.78,0002.90,0002.40
2023-12-23 20:15:00,SystemResetWarning,0817.8,5.00,000.00,024.8,024.1,000.0,033.0,026.3,14.0,0000.0,0005.37,0002.82,0002.32
2023-12-23 20:16:00,SystemResetWarning,0817.8,5.00,000.00,024.8,024.1,000.0,033.0,026.3,14.0,0000.0,0005.17,0002.72,0002.26
2023-12-23 20:17:00,SystemResetWarning,0817.8,5.00,000.00,024.8,024.1,000.0,033.0,026.3,14.0,0000.0,0004.70,0002.60,0002.17
2023-12-23 20:18:00,SystemResetWarning,0817.8,4.99,000.00,024.8,024.1,000.0,033.0,026.3,14.0,0000.0,0004.14,0002.51,0002.06
2023-12-23 20:19:00,SystemResetWarning,0817.8,5.01,000.00,024.8,024.1,000.0,033.0,026.3,13.9,0000.0,0003.92,0002.42,0001.98
2023-12-23 20:20:00,SystemResetWarning,0817.8,5.01,000.00,024.8,024.2,000.0,033.0,026.3,13.9,0000.0,0004.61,0002.33,0001.88
2023-12-23 20:21:00,SystemResetWarning,0817.8,5.00,000.00,024.9,024.2,000.0,033.1,026.3,14.0,0000.0,0005.38,0002.29,0001.79
2023-12-23 20:22:00,SystemResetWarning,0817.8,5.00,000.00,024.9,024.2,000.0,033.1,026.4,14.0,0000.0,0005.42,0002.17,0001.70
2023-12-23 20:23:00,SystemResetWarning,0817.8,4.99,000.00,024.9,024.2,000.0,033.1,026.3,13.8,0000.0,0005.36,0002.11,0001.64
2023-12-23 20:24:00,SystemResetWarning,0817.8,5.00,000.00,024.9,024.2,000.0,033.1,026.4,13.8,0000.0,0005.43,0002.03,0001.57
2023-12-23 20:25:00,SystemResetWarning,0817.8,5.00,000.00,024.9,024.2,000.0,033.1,026.4,13.8,0000.0,0006.09,0001.98,0001.52
2023-12-23 20:26:00,SystemResetWarning,0817.8,5.01,000.00,024.9,024.2,000.0,033.1,026.4,13.9,0000.0,0006.17,0001.92,0001.49
2023-12-23 20:27:00,SystemResetWarning,0817.8,5.01,000.00,024.9,024.2,000.0,033.1,026.4,13.9,0000.0,0006.11,0001.90,0001.48
2023-12-23 20:28:00,SystemResetWarning,0817.8,5.00,000.00,024.9,024.3,000.0,033.2,026.4,13.9,0000.0,0006.19,0001.92,0001.48
2023-12-23 20:29:00,SystemResetWarning,0817.7,4.99,000.00,024.9,024.3,000.0,033.2,026.4,13.8,0000.0,0006.28,0001.98,0001.51
2023-12-23 20:30:00,SystemResetWarning,0817.8,4.99,000.00,024.9,024.3,000.0,033.2,026.4,13.9,0000.0,0006.39,0002.01,0001.53
2023-12-23 20:31:00,SystemResetWarning,0817.8,4.99,000.00,024.9,024.3,000.0,033.2,026.4,14.0,0000.0,0005.94,0002.02,0001.55
2023-12-23 20:32:00,SystemResetWarning,0817.8,5.01,000.00,025.0,024.3,000.0,033.2,026.4,14.0,0000.0,0004.91,0001.97,0001.56
2023-12-23 20:33:00,SystemResetWarning,0817.8,5.01,000.00,025.0,024.3,000.0,033.2,026.5,13.9,0000.0,0004.29,0001.99,0001.56
2023-12-23 20:34:00,SystemResetWarning,0817.8,5.01,000.00,025.0,024.3,000.0,033.2,026.5,13.8,0000.0,0004.23,0002.00,0001.57
2023-12-23 20:35:00,SystemResetWarning,0817.7,5.00,000.00,025.0,024.3,000.0,033.2,026.5,13.8,0000.0,0004.39,0002.01,0001.59
2023-12-23 20:36:00,SystemResetWarning,0817.8,4.99,000.00,025.0,024.3,000.0,033.2,026.5,13.9,0000.0,0003.71,0002.03,0001.60
2023-12-23 20:37:00,SystemResetWarning,0817.7,4.99,000.00,025.0,024.3,000.0,033.2,026.5,13.8,0000.0,0003.30,0002.04,0001.60
2023-12-23 20:38:00,SystemResetWarning,0817.7,4.99,000.00,025.0,024.3,000.0,033.2,026.5,13.9,0000.0,0004.74,0002.07,0001.61
2023-12-23 20:39:00,SystemResetWarning,0817.7,5.00,000.00,025.0,024.4,000.0,033.3,026.5,13.9,0000.0,0005.75,0002.10,0001.62
2023-12-23 20:40:00,SystemResetWarning,0817.7,5.00,000.00,025.0,024.4,000.0,033.3,026.5,13.8,0000.0,0006.25,0002.09,0001.63
2023-12-23 20:41:00,SystemResetWarning,0817.7,5.01,000.00,025.0,024.4,000.0,033.3,026.5,13.8,0000.0,0006.20,0002.11,0001.68
2023-12-23 20:42:00,SystemResetWarning,0817.7,5.00,000.00,025.0,024.4,000.0,033.3,026.5,13.9,0000.0,0006.38,0002.15,0001.72
2023-12-23 20:43:00,SystemResetWarning,0817.7,4.98,000.00,025.0,024.4,000.0,033.3,026.5,14.0,0000.0,0007.26,0002.24,0001.76
2023-12-23 20:44:00,SystemResetWarning,0817.7,5.00,000.00,025.1,024.4,000.0,033.3,026.5,13.9,0000.0,0007.33,0002.27,0001.79
2023-12-23 20:45:00,SystemResetWarning,0817.8,5.01,000.00,025.1,024.4,000.0,033.3,026.5,13.8,0000.0,0007.43,0002.35,0001.83
2023-12-23 20:46:00,SystemResetWarning,0817.8,5.01,000.00,025.1,024.4,000.0,033.3,026.5,13.8,0000.0,0007.39,0002.38,0001.85
2023-12-23 20:47:00,SystemResetWarning,0817.8,5.00,000.00,025.1,024.4,000.0,033.3,026.5,13.8,0000.0,0007.41,0002.40,0001.87
2023-12-23 20:48:00,SystemResetWarning,0817.7,4.99,000.00,025.1,024.4,000.0,033.3,026.5,13.9,0000.0,0007.64,0002.41,0001.89
2023-12-23 20:49:00,SystemResetWarning,0817.7,4.99,000.00,025.1,024.4,000.0,033.3,026.6,13.9,0000.0,0007.17,0002.51,0001.93
2023-12-23 20:50:00,SystemResetWarning,0817.7,5.00,000.00,025.1,024.4,000.0,033.4,026.6,14.1,0000.0,0006.47,0002.56,0001.97
2023-12-23 20:51:00,SystemResetWarning,0817.7,5.00,000.00,025.1,024.4,000.0,033.4,026.6,14.1,0000.0,0005.89,0002.58,0002.00
2023-12-23 20:52:00,SystemResetWarning,0817.7,5.00,000.00,025.1,024.5,000.0,033.4,026.6,14.0,0000.0,0006.07,0002.63,0002.01
2023-12-23 20:53:00,SystemResetWarning,0817.7,5.00,000.00,025.1,024.5,000.0,033.4,026.6,14.0,0000.0,0005.94,0002.67,0002.03
2023-12-23 20:54:00,SystemResetWarning,0817.7,5.02,000.00,025.1,024.5,000.0,033.4,026.6,14.0,0000.0,0005.25,0002.66,0002.05
2023-12-23 20:55:00,SystemResetWarning,0817.7,5.00,000.00,025.1,024.5,000.0,033.4,026.6,13.9,0000.0,0005.16,0002.67,0002.07
2023-12-23 20:56:00,SystemResetWarning,0817.6,4.99,000.00,025.1,024.5,000.0,033.4,026.6,13.7,0000.0,0005.10,0002.66,0002.08
2023-12-23 20:57:00,SystemResetWarning,0817.7,4.99,000.00,025.2,024.5,000.0,033.4,026.6,13.8,0000.0,0005.15,0002.65,0002.08
2023-12-23 20:58:00,SystemResetWarning,0817.7,5.00,000.00,025.2,024.5,000.0,033.4,026.6,13.8,0000.0,0005.14,0002.64,0002.09
2023-12-23 20:59:00,SystemResetWarning,0817.6,5.01,000.00,025.2,024.5,000.0,033.4,026.6,13.8,0000.0,0006.12,0002.66,0002.09
